User: anonymous   Login
Location: Caltech
(34.1382°N, 118.1253°W)
Time: 08:00:31
(UTC-08:00)
Language:

FENGYUN 3A - Orbit

View from above orbital plane
View from above orbital plane
View from above satellite
View from above satellite

Ground track
Ground track

The orbit data is extracted from the following two-line orbital elements,

1 32958U 08026A   14331.09793977  .00000218  00000-0  12329-3 0  5746
2 32958 098.5344 024.2693 0010531 104.7251 255.5097 14.19497139336955
Epoch (UTC): 27 November 2014 02:21:01
Eccentricity: 0.0010531
inclination: 98.5344°
perigee height: 819 km
apogee height: 834 km
right ascension of ascending node: 24.2693°
argument of perigee: 104.7251°
revolutions per day: 14.19497139
mean anomaly at epoch: 255.5097°
orbit number at epoch: 33695

The dashed part of the orbit path shows where the satellite is in the earth's shadow,  

DLR